Hourly Data Report for October 05, 2017

All times are specified in Local Standard Time (LST). Add 1 hour to adjust for Daylight Saving Time where and when it is observed.

CLYDE RIVER A
NUNAVUT

70°29'09.000" N
68°31'01.000" W
26.50 m
2400804
71090
YCY

Download Data

Hourly Data (October 2017)
Hourly Data Report for October 5, 2017
Temp Definition
°C
Dew Point Temp Definition
°C
Rel Hum Definition
%
Wind Dir Definition
10's deg

Wind Spd Definition
km/h
Visibility Definition
km
Stn Press Definition
kPa
Hmdx Definition


Wind Chill Definition


Weather Definition


TIME
00:00 Legend Double Dagger -4.7 -9.1 72 15 11 16.1 99.46   -9 LegendNANA
01:00 Legend Double Dagger -6.4 -9.6 78 18 22 16.1 99.57   -14 LegendNANA
02:00 Legend Double Dagger -4.8 -8.9 73 17 28 16.1 99.69   -12 LegendNANA
03:00 Legend Double Dagger -2.9 -6.4 77 16 26 16.1 99.79   -10 LegendNANA
04:00 Legend Double Dagger -4.3 -6.4 85 14 15 16.1 99.88   -10 LegendNANA
05:00 Legend Double Dagger -2.4 -5.3 81 15 13 16.1 99.93   -7 LegendNANA
06:00 Legend Double Dagger -1.5 -4.8 79 14 24 16.1 99.99   -8 LegendNANA
07:00 Legend Double Dagger -2.0 -4.0 86 14 35 16.1 100.02   -10 LegendNANA
08:00 Legend Double Dagger -1.5 -3.5 86 14 24 16.1 100.11   -8 LegendNANA
09:00 Legend Double Dagger -0.7 -3.2 83 14 22 16.1 100.13   -6 LegendNANA
10:00 Legend Double Dagger -0.3 -3.0 82 36 11 16.1 100.15   -4 LegendNANA
11:00 Legend Double Dagger -0.1 -2.5 84 12 24 16.1 100.19   -6 LegendNANA
12:00 Legend Double Dagger -0.6 -2.5 87 14 18 16.1 100.20   -6 LegendNANA
13:00 Legend Double Dagger 0.0 -2.1 86 14 24 16.1 100.22   -6 Snow
14:00 Legend Double Dagger -0.7 -2.8 86 13 22 16.1 100.29   -6 LegendNANA
15:00 Legend Double Dagger -2.1 -3.7 89 13 13 16.1 100.33   -7 LegendNANA
16:00 Legend Double Dagger -4.6 -5.3 95 LegendMM 4 16.1 100.37   -6 LegendNANA
17:00 Legend Double Dagger -1.7 -3.3 89 12 5 16.1 100.39   -4 LegendNANA
18:00 Legend Double Dagger -4.3 -5.7 90 32 11 16.1 100.40   -9 LegendNANA
19:00 Legend Double Dagger -1.2 -3.3 86   0 16.1 100.37     LegendNANA
20:00 Legend Double Dagger -2.3 -3.6 91 35 11 16.1 100.35   -6 LegendNANA
21:00 Legend Double Dagger -2.7 -4.0 91 33 13 16.1 100.32   -7 LegendNANA
22:00 Legend Double Dagger -2.7 -4.3 89 36 13 16.1 100.31   -7 LegendNANA
23:00 Legend Double Dagger -2.1 -3.7 89 3 11 16.1 100.27   -6 LegendNANA

Notes on Data Quality.

Legend

  • E = Estimated
  • M = Missing
  • NA = Not Available
  • ‡ = Partner data that is not subject to review by the National Climate Archives
Date modified: